CW7520 Weather Reports


Display with metric or nautical units.
time (UTC)temp
F
wind
direction
speed
MPH
gust
MPH
rain 1hr
in
rain 24hr
in
rain mn
in
humidity
%
barometer
mb
20260507060008 54 0 0.0 0.0 0.00 0.70 0.40 77 1021.7
20260507055403 54 0 0.0 0.0 0.00 0.70 0.40 77 1021.8
20260507054503 54 0 0.0 0.0 0.00 0.70 0.40 77 1021.7
20260507053608 54 0 0.0 0.0 0.00 0.70 0.40 76 1021.8
20260507052703 54 0 0.0 0.0 0.00 0.70 0.40 76 1021.8
20260507051808 54 0 0.0 0.0 0.00 0.70 0.40 74 1021.7
20260507050908 54 0 0.0 0.0 0.00 0.70 0.40 73 1021.6
20260507050008 54 0 0.0 0.0 0.00 0.70 0.40 73 1021.6
20260507045403 53 0 0.0 0.0 0.00 0.70 0.40 74 1021.6
20260507044503 53 0 0.0 0.0 0.00 0.70 0.40 75 1021.7
20260507043603 53 0 0.0 0.0 0.00 0.70 0.40 76 1021.7
20260507042708 53 0 0.0 0.0 0.01 0.70 0.40 79 1021.7
20260507041808 53 0 0.0 0.0 0.02 0.70 0.40 81 1021.7
20260507040903 53 0 0.0 0.0 0.02 0.70 0.40 83 1021.7
20260507040004 52 0 0.0 0.0 0.02 0.70 0.40 85 1021.6
20260507035413 52 0 0.0 0.0 0.02 0.70 0.40 85 1021.8
20260507034508 51 0 0.0 0.0 0.02 0.70 0.40 84 1021.8
20260507033608 51 0 0.0 0.0 0.03 0.70 0.40 83 1022.0
20260507032708 52 0 0.0 0.0 0.02 0.69 0.39 81 1022.2
20260507031803 52 0 0.0 0.0 0.01 0.68 0.38 78 1022.1
20260507030908 53 0 0.0 0.0 0.01 0.68 0.38 78 1021.9
20260507030009 52 0 0.0 0.0 0.01 0.68 0.38 81 1021.9
20260507025623 52 0 0.0 0.0 0.01 0.68 0.38 81 1022.1
20260507024503 51 0 0.0 0.0 0.01 0.68 0.38 80 1022.0
20260507023818 51 0 0.0 0.0 0.00 0.67 0.37 82 1022.1
20260507022708 51 0 0.0 0.0 0.00 0.67 0.37 81 1022.2
20260507021804 51 0 0.0 0.0 0.01 0.67 0.37 83 1022.2
20260507020903 50 0 0.0 0.0 0.01 0.67 0.37 86 1022.1
20260507020213 49 0 0.0 0.0 0.01 0.67 0.37 88 1022.2
20260507015403 48 0 0.0 0.0 0.01 0.67 0.37 89 1022.1
20260507014508 48 0 0.0 0.0 0.02 0.67 0.37 89 1022.3
20260507013608 47 0 0.0 0.0 0.02 0.67 0.37 88 1022.3
20260507012703 47 0 0.0 0.0 0.04 0.67 0.37 88 1022.6
20260507012018 47 0 0.0 0.0 0.05 0.67 0.37 88 1022.5
20260507010903 47 0 0.0 0.0 0.04 0.66 0.36 88 1022.4
20260507010003 46 0 0.0 0.0 0.05 0.66 0.36 88 1022.1
20260507005403 46 0 0.0 0.0 0.06 0.66 0.36 88 1021.9
20260507004503 46 0 0.0 0.0 0.07 0.65 0.35 88 1022.3
20260507003813 46 0 0.0 0.0 0.07 0.65 0.35 88 1022.4
20260507002713 46 0 0.0 0.0 0.05 0.63 0.33 88 1022.6
20260507001803 46 0 0.0 0.0 0.04 0.62 0.32 89 1022.2
20260507001119 46 0 0.0 0.0 0.05 0.62 0.32 89 1021.9
20260507000008 46 0 0.0 0.0 0.08 0.61 0.31 89 1022.2
20260506235403 46 0 0.0 0.0 0.08 0.60 0.30 89 1022.4
20260506234508 46 0 0.0 0.0 0.06 0.58 0.28 90 1022.0
20260506233608 45 0 0.0 0.0 0.06 0.58 0.28 90 1021.8
20260506232703 44 0 0.0 0.0 0.06 0.58 0.28 89 1021.6
20260506231803 44 0 0.0 0.0 0.06 0.58 0.28 89 1021.8
20260506230908 44 0 0.0 0.0 0.05 0.57 0.27 89 1022.3
20260506230218 44 0 0.0 0.0 0.02 0.54 0.24 89 1022.0
20260506225404 44 0 0.0 0.0 0.02 0.52 0.22 89 1021.8
20260506224508 44 0 0.0 0.0 0.02 0.52 0.22 89 1021.3
20260506223605 43 0 0.0 0.0 0.02 0.52 0.22 89 1020.9
20260506222708 43 0 0.0 0.0 0.04 0.52 0.22 89 1020.9
20260506221804 43 0 0.0 0.0 0.04 0.52 0.22 88 1021.0
20260506220903 43 0 0.0 0.0 0.06 0.52 0.22 88 1021.1
20260506220008 43 0 0.0 0.0 0.06 0.52 0.22 88 1021.2
20260506215403 43 0 0.0 0.0 0.04 0.50 0.20 88 1021.2
20260506214508 43 0 0.0 0.0 0.04 0.50 0.20 88 1020.8
20260506213603 43 0 0.0 0.0 0.04 0.50 0.20 88 1020.6
20260506212703 43 0 0.0 0.0 0.04 0.48 0.18 88 1020.3
20260506211804 43 0 0.0 0.0 0.07 0.48 0.18 88 1020.2
20260506210904 43 0 0.0 0.0 0.07 0.46 0.17 88 1020.1
20260506210004 43 0 0.0 0.0 0.07 0.46 0.17 88 1019.9
20260506205403 43 0 0.0 0.0 0.07 0.46 0.17 88 1019.8
20260506204504 43 0 0.0 0.0 0.06 0.46 0.16 87 1019.6
20260506203604 43 0 0.0 0.0 0.08 0.46 0.16 87 1019.7
20260506202703 43 0 0.0 0.0 0.06 0.44 0.14 87 1020.0
20260506202014 43 0 0.0 0.0 0.04 0.42 0.12 87 1019.9
20260506200905 43 0 0.0 0.0 0.02 0.39 0.09 87 1019.7
20260506200215 43 0 0.0 0.0 0.04 0.39 0.09 87 1019.1
20260506195404 43 0 0.0 0.0 0.05 0.39 0.09 86 1018.9
20260506194503 43 0 0.0 0.0 0.06 0.39 0.09 86 1019.2
20260506193603 44 0 0.0 0.0 0.08 0.38 0.08 86 1019.3
20260506192703 44 0 0.0 0.0 0.08 0.38 0.08 85 1019.5
20260506191805 44 0 0.0 0.0 0.08 0.38 0.08 85 1019.4
20260506190903 44 0 0.0 0.0 0.08 0.38 0.08 84 1019.5
20260506190214 44 0 0.0 0.0 0.06 0.35 0.06 84 1019.5
20260506185404 44 0 0.0 0.0 0.05 0.35 0.05 83 1019.5
20260506184505 44 0 0.0 0.0 0.03 0.33 0.03 82 1019.6
20260506183605 44 0 0.0 0.0 0.00 0.30 0.00 80 1019.4
20260506182705 44 0 0.0 0.0 0.00 0.30 0.00 79 1019.1
20260506181805 44 0 0.0 0.0 0.00 0.30 0.00 79 1018.8
20260506180903 44 0 0.0 0.0 0.00 0.30 0.00 79 1018.7
20260506180004 44 0 0.0 0.0 0.00 0.30 0.00 79 1018.4
20260506175404 44 0 0.0 0.0 0.00 0.30 0.00 79 1018.4
20260506174504 45 0 0.0 0.0 0.00 0.30 0.00 79 1018.1
20260506173603 45 0 0.0 0.0 0.00 0.30 0.00 78 1018.6
20260506172703 45 0 0.0 0.0 0.00 0.30 0.00 78 1018.8
20260506171803 45 0 0.0 0.0 0.00 0.30 0.00 78 1018.7
20260506170905 45 0 0.0 0.0 0.00 0.30 0.00 78 1018.8
20260506170009 45 0 0.0 0.0 0.00 0.30 0.00 78 1018.8
20260506165404 45 0 0.0 0.0 0.00 0.30 0.00 78 1018.8
20260506164503 46 0 0.0 0.0 0.00 0.30 0.00 77 1018.6
20260506163604 46 0 0.0 0.0 0.00 0.30 0.00 77 1018.5
20260506162705 46 0 0.0 0.0 0.00 0.30 0.00 77 1018.3
20260506161805 46 0 0.0 0.0 0.00 0.30 0.00 76 1018.3
20260506160905 46 0 0.0 0.0 0.00 0.30 0.00 76 1018.3
20260506160213 46 0 0.0 0.0 0.00 0.30 0.00 76 1018.6
20260506155615 46 0 0.0 0.0 0.00 0.30 0.00 76 1018.6
20260506154505 46 0 0.0 0.0 0.00 0.30 0.00 76 1018.6
20260506153604 46 0 0.0 0.0 0.00 0.30 0.00 77 1018.6
20260506152704 46 0 0.0 0.0 0.00 0.30 0.00 77 1018.7
20260506152016 46 0 0.0 0.0 0.00 0.30 0.00 77 1018.6
20260506150905 46 0 0.0 0.0 0.00 0.30 0.00 78 1018.7
20260506150008 46 0 0.0 0.0 0.00 0.30 0.00 78 1018.7
20260506145405 46 0 0.0 0.0 0.00 0.30 0.00 77 1018.7
20260506144508 47 0 0.0 0.0 0.00 0.30 0.00 77 1018.5
20260506143604 47 0 0.0 0.0 0.00 0.30 0.00 76 1018.6
20260506142703 47 0 0.0 0.0 0.00 0.30 0.00 76 1018.5
20260506141808 47 0 0.0 0.0 0.00 0.30 0.00 76 1018.5
20260506141113 47 0 0.0 0.0 0.00 0.30 0.00 76 1018.5
20260506140013 48 0 0.0 0.0 0.00 0.30 0.00 76 1018.4
20260506135404 48 0 0.0 0.0 0.00 0.30 0.30 76 1018.3
20260506134508 48 0 0.0 0.0 0.00 0.30 0.30 77 1018.1
20260506133605 49 0 0.0 0.0 0.00 0.30 0.30 78 1018.4
20260506132709 49 0 0.0 0.0 0.00 0.30 0.30 79 1018.3
20260506131804 49 0 0.0 0.0 0.00 0.30 0.30 80 1018.4
20260506130903 49 0 0.0 0.0 0.00 0.30 0.30 82 1018.4
20260506130008 50 0 0.0 0.0 0.00 0.30 0.30 82 1018.2
20260506125408 50 0 0.0 0.0 0.00 0.30 0.30 83 1018.2
20260506124508 50 0 0.0 0.0 0.00 0.30 0.30 83 1018.0
20260506123814 50 0 0.0 0.0 0.00 0.30 0.30 84 1018.0
20260506122703 50 0 0.0 0.0 0.00 0.30 0.30 85 1017.9
20260506121803 50 0 0.0 0.0 0.00 0.30 0.30 85 1017.9
20260506120903 50 0 0.0 0.0 0.00 0.30 0.30 85 1017.8
20260506120004 50 0 0.0 0.0 0.00 0.30 0.30 85 1017.7
20260506115403 50 0 0.0 0.0 0.00 0.30 0.30 85 1017.7
20260506114508 50 0 0.0 0.0 0.00 0.30 0.30 86 1017.7
20260506113608 50 0 0.0 0.0 0.01 0.30 0.30 86 1017.6
20260506112703 50 0 0.0 0.0 0.01 0.30 0.30 86 1017.6
20260506112019 50 0 0.0 0.0 0.01 0.30 0.30 85 1017.7
20260506110903 50 0 0.0 0.0 0.01 0.30 0.30 86 1017.6
20260506110009 51 0 0.0 0.0 0.02 0.30 0.30 86 1017.3
20260506105403 51 0 0.0 0.0 0.02 0.30 0.30 86 1017.3
20260506104714 52 0 0.0 0.0 0.02 0.30 0.30 87 1017.2
20260506103604 53 0 0.0 0.0 0.03 0.29 0.29 87 1016.7
20260506102708 53 0 0.0 0.0 0.15 0.29 0.29 88 1016.7
20260506101808 53 0 0.0 0.0 0.15 0.29 0.29 87 1016.6
20260506100904 54 0 0.0 0.0 0.15 0.29 0.29 87 1016.5
20260506100008 54 0 0.0 0.0 0.15 0.28 0.28 87 1016.2
20260506095404 54 0 0.0 0.0 0.16 0.28 0.28 86 1016.3
20260506094714 55 0 0.0 0.0 0.16 0.28 0.28 86 1016.1
20260506093608 56 0 0.0 0.0 0.17 0.26 0.26 86 1016.1
20260506092704 56 0 0.0 0.0 0.13 0.14 0.14 86 1015.0
20260506091813 56 0 0.0 0.0 0.13 0.14 0.14 85 1015.1
20260506090918 57 0 0.0 0.0 0.14 0.14 0.14 85 1015.3
20260506090219 57 0 0.0 0.0 0.14 0.14 0.14 84 1015.3
20260506085409 58 0 0.0 0.0 0.13 0.13 0.13 83 1015.4
20260506084503 58 0 0.0 0.0 0.12 0.12 0.12 82 1015.3
20260506083823 58 0 0.0 0.0 0.10 0.10 0.11 81 1015.4
20260506082914 59 0 0.0 0.0 0.02 0.02 0.02 79 1015.5
20260506081803 59 0 0.0 0.0 0.02 0.02 0.02 76 1014.8
20260506080903 60 0 0.0 0.0 0.00 0.00 0.00 74 1014.7
20260506072708 61 0 0.0 0.0 0.00 0.00 0.00 65 1014.4
20260506071803 62 0 0.0 0.0 0.00 0.00 0.00 65 1014.4
20260506070908 62 0 0.0 0.0 0.00 0.00 0.00 63 1014.5
20260506070224 62 0 0.0 0.0 0.00 0.00 0.00 63 1014.6
20260506061808 64 0 0.0 0.0 0.00 0.00 0.00 59 1015.0
20260506060903 65 0 0.0 0.0 0.00 0.00 0.00 57 1015.0